Regional Weather Roundup
Issued by NWS New Orleans/Baton Rouge, LA

Home | Current Version | Previous Version | Text Only | Print | Product List | Glossary On
Versions: 1 2 3 4 5 6 7 8 9 10 11 12 13 14 15 16 17 18 19 20 21 22 23 24 25 26 27 28 29 30 31 32 33 34 35 36 37 38 39 40 41 42 43 44 45 46 47 48 49 50
000
ASUS44 KLIX 190413
RWRLIX
NEW ORLEANS REGIONAL WEATHER ROUNDUP
NATIONAL WEATHER SERVICE NEW ORLEANS LA
1000 PM CST SUN FEB 18 2018

NOTE: "FAIR" INDICATES FEW OR NO CLOUDS BELOW 12,000 FEET WITH NO
      SIGNIFICANT WEATHER AND/OR OBSTRUCTIONS TO VISIBILITY.
      SKY/WX - SKY CONDITION AND SIGNIFICANT WEATHER.
      TMP - AIR TEMPERATURE.     DP    - DEWPOINT TEMPERATURE.
      RH  - RELATIVE HUMIDITY.   PRES  - PRESSURE.
      HI  - HEAT INDEX.          WCI   - WIND CHILL INDEX.

*  THESE STATIONS ARE NOT NWS OR FAA STATIONS AND ARE NOT UNDER
   NWS QUALITY CONTROL.

LAZ038-040-048-061>063-065>067-069-190500-
SOUTHEAST LOUISIANA

CITY           SKY/WX    TMP DP  RH WIND       PRES   REMARKS
N.O. INTL ARPT FAIR      69  67  93 SE7       30.14F
N.O. LAKEFRONT FAIR      69  67  93 SE9       30.15F
N.O. DOWNTOWN* FAIR      70  65  84 SE5       30.16S
RESERVE*       FAIR      68  64  85 S7        30.14S
SLIDELL        CLOUDY    66  65  96 SE5       30.14F
BATON ROUGE    FAIR      68  63  84 SE5       30.12S
BOOTHVILLE     NOT AVBL
BELLE CHASSE   FAIR      68  67  96 SE6       30.15
BOGALUSA*      FAIR      67  62  81 S6        30.15F
GALLIANO*      FAIR      69  64  82 SE6       30.15S
NEW ROADS*     FAIR      65  61  85 SE5       30.11S
GONZALES*      NOT AVBL
HAMMOND*       FAIR      64  64 100 SE7       30.14S
HOUMA*         FAIR      65  64  94 SE5       30.14F
PORT FOURCHON* CLEAR     72  68  88 SE9       30.16S

$$

MSZ070-080>082-190500-
SOUTHERN MISSISSIPPI

CITY           SKY/WX    TMP DP  RH WIND       PRES   REMARKS
MCCOMB         FAIR      67  62  84 S10       30.13S
GULFPORT       MOCLDY    67  66  97 E6        30.16F
BILOXI         MOCLDY    66  64  94 SE7       30.17S FOG
PASCAGOULA     FOG       64  63  96 SE3       30.18F VSB 1

$$

COASTAL OBSERVATIONS
LAKE AND NEARSHORE STATIONS

STATION/POSITION TIME  SKY/WX   TEMP    WIND        PRES    WAVE
                                AIR SEA DIR/SP/G            HT/PER
                 (UTC)          (F)     (DEG/KT/KT) (MB)    (FT/S)
WAVELAND YACHT   0342            67 70  130/ 10/ 12 1021.5
GRAND ISLE       0342            69 71  130/  6/  8 1021.4
SOUTHWEST PASS   0342            65 48  110/ 12/ 13 1022.0
NEW CANAL        0342            69 64  140/  4/  7 1020.7
SHELL BEACH      0342            69 74  110/ 10/ 12 1021.3

OFFSHORE STATIONS

STATION/POSITION TIME  SKY/WX   TEMP    WIND        PRES    WAVE
                                AIR SEA DIR/SP/G            HT/PER
                 (UTC)          (F)     (DEG/KT/KT) (MB)    (FT/S)
64 S DAUPHIN ISL 0350            74     130/ 10/ 14 1022.3    2/ 3

$$




USA.gov is the U.S. government's official web portal to all federal, state and local government web resources and services.